INTELSAT 18 (IS-18)

Last updated on Tue Sep 22 2026 00:03:12 GMT+0000 (Coordinated Universal Time)

1 37834U 11056A 26264.42961167 .00000049 00000+0 00000+0 0 9995 2 37834 0.0300 256.5362 0002062 284.9506 153.4999 1.00271264 54779
UTC large
Height (km)
Speed (km/s)
/
Latitude / Longitude
Inclination (degrees)
Orbital Period (minutes)
Azimuth
Elevation
Range (km)
Doppler Factor

Next 0 passes for location: London (51.5072 / 0.1276)

No passes found over London.
INTELSAT 18 (IS-18)